User: anonymous   Login
Location: Caltech
(34.1382°N, 118.1253°W)
Time: 19:50:06
(UTC-08:00)
Language:

Cosmos 1833 Rocket - Orbit

View from above orbital plane
View from above orbital plane
View from above satellite
View from above satellite

Ground track
Ground track

The orbit data is extracted from the following two-line orbital elements,

1 17590U 87027B   14327.17688114  .00000175  00000-0  11151-3 0  8319
2 17590 071.0039 322.9791 0007474 287.8191 072.2117 14.16663795431416
Epoch (UTC): 23 November 2014 04:14:42
Eccentricity: 0.0007474
inclination: 71.0039°
perigee height: 831 km
apogee height: 842 km
right ascension of ascending node: 322.9791°
argument of perigee: 287.8191°
revolutions per day: 14.16663795
mean anomaly at epoch: 72.2117°
orbit number at epoch: 43141

The dashed part of the orbit path shows where the satellite is in the earth's shadow,  

DLR